Location: *
(40.7873°S, 98.7174°E)
Time: 01:10:52
(UTC+00:00)

ARIANE 6 FM1 Upper Stage - Pass Details

Date: 18 December 2025
Orbit: 522 x 610 km, 62.0° (Epoch: 20 January)

Event Time Altitude Azimuth Distance (km) Brightness Sun altitude
Rises 18:48:54 0° 217° (SW) 2,906 6.7 -22.7°
Reaches altitude 10° 18:51:13 10° 216° (SW) 1,989 5.8 -22.5°
Maximum altitude 18:55:44 85° 128° (SE) 617 2.8 -22.2°
Enters shadow 18:56:56 49° 42° (NE) 788 3.2 -22.1°
